Weather reports worldwide

Advertisment
Capri, Italy (16294): temperature & dewpoint: 10.11.2018 05:00:00 - 16.11.2018 05:00:00 (CET)Capri, Italy (16294): wind speed: 10.11.2018 05:00:00 - 16.11.2018 05:00:00 (CET)Capri, Italy (16294): wind direction: 10.11.2018 05:00:00 - 16.11.2018 05:00:00 (CET)Capri, Italy (16294): reduced air pressure: 10.11.2018 05:00:00 - 16.11.2018 05:00:00 (CET)Capri, Italy (16294): visibility: 10.11.2018 05:00:00 - 16.11.2018 05:00:00 (CET)
Date & Time tt [°C] td [°C] ff [km/h] ff [kn] dd ppp [hPa] vv [km]
16.11.2018 05:00:00 16,0 8,0 0 0 N - 10
16.11.2018 04:00:00 15,8 8,1 0 0 N 1019,5 20
16.11.2018 03:00:00 15,0 8,0 0 0 N - 10
16.11.2018 02:00:00 15,0 9,0 8 4 ENE - 10
16.11.2018 01:00:00 15,4 9,3 9 5 NE 1020,4 20
16.11.2018 00:00:00 16,0 9,0 9 5 NE - 10
15.11.2018 23:00:00 15,0 9,0 9 5 NE - 10
15.11.2018 22:00:00 16,0 9,7 8 4 E 1020,3 20
15.11.2018 21:00:00 16,0 10,0 8 4 ENE - 10
15.11.2018 20:00:00 16,0 10,0 0 0 N - 10
15.11.2018 19:00:00 16,0 9,9 15 8 NE 1021,2 20
15.11.2018 18:00:00 16,0 10,0 8 4 NE - 10
15.11.2018 17:00:00 16,0 10,0 8 4 E - 10
15.11.2018 16:00:00 17,0 9,4 8 4 E 1022,0 20
15.11.2018 15:00:00 18,0 10,0 0 0 N - 10
15.11.2018 14:00:00 18,0 10,0 9 5 NE - 10
15.11.2018 13:00:00 17,8 9,9 9 5 E 1022,1 20
15.11.2018 12:00:00 18,0 10,0 9 5 ENE - 10
15.11.2018 11:00:00 17,0 9,0 9 5 E - 10
15.11.2018 10:00:00 17,0 10,4 0 0 N 1022,4 20
15.11.2018 09:00:00 15,0 12,0 0 0 N - 10
15.11.2018 08:00:00 14,0 12,0 2 1 E - 10
15.11.2018 07:00:00 13,8 10,8 2 1 N 1023,4 20
15.11.2018 06:00:00 16,0 11,0 5 3 E - 10
15.11.2018 05:00:00 16,0 11,0 5 3 E - 10
15.11.2018 04:00:00 14,0 11,0 0 0 N 1023,4 18
15.11.2018 03:00:00 16,0 11,0 5 3 E - 10
15.11.2018 02:00:00 16,0 12,0 4 2 ENE - 10
15.11.2018 01:00:00 15,6 11,4 5 3 E 1023,8 18
15.11.2018 00:00:00 16,0 11,0 5 3 NE - 10
14.11.2018 23:00:00 15,0 13,0 0 0 N - 10
14.11.2018 22:00:00 15,4 12,9 8 4 ENE 1024,6 15
14.11.2018 21:00:00 16,0 13,0 5 3 NE - 10
14.11.2018 20:00:00 16,0 13,0 4 2 N - 10
14.11.2018 19:00:00 16,0 12,9 4 2 NNW 1024,4 15
14.11.2018 18:00:00 15,0 12,0 0 0 N - 10
14.11.2018 17:00:00 16,0 13,0 0 0 N - 10
14.11.2018 16:00:00 17,4 12,7 0 0 N 1024,5 10
14.11.2018 15:00:00 17,0 13,0 4 2 NNW - 10
14.11.2018 14:00:00 17,0 13,0 2 1 NE - 10
14.11.2018 13:00:00 16,6 13,5 2 1 NE 1025,4 15
14.11.2018 12:00:00 16,0 12,0 2 1 NE - 10
14.11.2018 11:00:00 16,0 13,0 2 1 NE - 10
14.11.2018 10:00:00 16,0 14,0 2 1 - 1026,9 10
14.11.2018 09:00:00 15,0 14,0 4 2 NE - 10
14.11.2018 08:00:00 15,0 13,0 4 2 NE - 10
14.11.2018 07:00:00 14,6 13,3 8 4 NE 1027,7 20
14.11.2018 06:00:00 15,0 14,0 5 3 NE - 10
14.11.2018 05:00:00 15,0 14,0 4 2 NE - 10
14.11.2018 04:00:00 15,2 13,9 5 3 NE 1028,2 20
14.11.2018 03:00:00 15,0 14,0 5 3 NE - 10
14.11.2018 02:00:00 15,0 14,0 5 3 NE - 10
14.11.2018 01:00:00 15,4 13,3 4 2 NE 1028,6 20
14.11.2018 00:00:00 16,0 13,0 4 2 NE - 10
13.11.2018 23:00:00 16,0 13,0 4 2 NE - 10
13.11.2018 22:00:00 16,2 13,7 4 2 NE 1029,0 20
13.11.2018 21:00:00 16,0 14,0 4 2 NE - 10
13.11.2018 20:00:00 16,0 14,0 5 3 NE - 10
13.11.2018 19:00:00 16,0 12,9 5 3 NE 1029,1 20
13.11.2018 18:00:00 16,0 13,0 5 3 NE - 10
13.11.2018 17:00:00 17,0 13,0 4 2 NE - 10
13.11.2018 16:00:00 17,0 10,8 5 3 NE 1028,3 20
13.11.2018 15:00:00 18,0 11,0 5 3 NE - 10
13.11.2018 14:00:00 18,0 13,0 4 2 NE - 10
13.11.2018 13:00:00 17,4 13,3 4 2 NE 1029,6 20
13.11.2018 12:00:00 17,0 12,0 4 2 ENE - 10
13.11.2018 11:00:00 17,0 13,0 0 0 N - 10
13.11.2018 10:00:00 15,6 10,6 4 2 NE 1029,7 20
13.11.2018 09:00:00 15,0 12,0 5 3 ENE - 10
13.11.2018 08:00:00 15,0 13,0 8 4 ENE - 10
13.11.2018 07:00:00 14,8 12,3 8 4 E 1028,6 20
13.11.2018 06:00:00 - - - - - - -
13.11.2018 05:00:00 - - - - - - -
13.11.2018 04:00:00 15,8 12,0 9 5 ENE 1028,4 20
13.11.2018 03:00:00 16,0 12,0 11 6 ENE - 10
13.11.2018 02:00:00 16,0 13,0 15 8 ENE - 10
13.11.2018 01:00:00 16,2 13,1 11 6 ENE 1028,2 20
13.11.2018 00:00:00 16,0 14,0 13 7 ENE - 10
12.11.2018 23:00:00 17,0 12,0 11 6 E - 10
12.11.2018 22:00:00 16,4 12,7 8 4 NE 1027,6 20
12.11.2018 21:00:00 16,0 13,0 9 5 NE - 10
12.11.2018 20:00:00 17,0 14,0 9 5 NE - 10
12.11.2018 19:00:00 17,2 13,7 0 0 N 1027,3 20
12.11.2018 18:00:00 17,0 13,0 0 0 N - 10
12.11.2018 17:00:00 17,0 11,0 0 0 N - 10
12.11.2018 16:00:00 17,6 13,1 0 0 N 1027,1 20
12.11.2018 15:00:00 18,0 14,0 0 0 N - 10
12.11.2018 14:00:00 18,0 14,0 0 0 N - 10
12.11.2018 13:00:00 18,2 14,3 4 2 NNW 1027,8 20
12.11.2018 12:00:00 18,0 14,0 5 3 NE - 10
12.11.2018 11:00:00 18,0 14,0 5 3 NE - 10
12.11.2018 10:00:00 17,2 12,5 5 3 ENE 1027,7 20
12.11.2018 09:00:00 - - - - - - -
12.11.2018 08:00:00 - - - - - - -
12.11.2018 07:00:00 - - - - - - -
12.11.2018 06:00:00 - - - - - - -
12.11.2018 05:00:00 - - - - - - -
12.11.2018 04:00:00 - - - - - - -
12.11.2018 03:00:00 - - - - - - -
12.11.2018 02:00:00 - - - - - - -
12.11.2018 01:00:00 - - - - - - -
12.11.2018 00:00:00 - - - - - - -
11.11.2018 23:00:00 - - - - - - -
11.11.2018 22:00:00 - - - - - - -
11.11.2018 21:00:00 - - - - - - -
11.11.2018 20:00:00 - - - - - - -
11.11.2018 19:00:00 - - - - - - -
11.11.2018 18:00:00 - - - - - - -
11.11.2018 17:00:00 - - - - - - -
11.11.2018 16:00:00 - - - - - - -
11.11.2018 15:00:00 - - - - - - -
11.11.2018 14:00:00 - - - - - - -
11.11.2018 13:00:00 - - - - - - -
11.11.2018 12:00:00 - - - - - - -
11.11.2018 11:00:00 - - - - - - -
11.11.2018 10:00:00 - - - - - - -
11.11.2018 09:00:00 16,0 12,0 8 4 NE - 10
11.11.2018 08:00:00 14,0 12,0 11 6 NE - 10
11.11.2018 07:00:00 14,2 11,2 9 5 NE 1019,2 20
11.11.2018 06:00:00 14,0 12,0 11 6 ENE - 10
11.11.2018 05:00:00 - - - - - - -
11.11.2018 04:00:00 14,6 12,1 0 0 N 1010,2 10
11.11.2018 03:00:00 14,0 11,0 0 0 E - 10
11.11.2018 02:00:00 - - - - - - -
11.11.2018 01:00:00 14,4 11,9 0 0 N 1018,0 20
11.11.2018 00:00:00 15,0 13,0 9 5 NE - 10
10.11.2018 23:00:00 15,0 13,0 11 6 E - 10
10.11.2018 22:00:00 15,2 12,7 11 6 E 1017,1 20
10.11.2018 21:00:00 15,0 13,0 9 5 SE - 10
10.11.2018 20:00:00 15,0 12,0 0 0 N - 10
10.11.2018 19:00:00 15,0 12,7 93 50 N 1016,2 -
10.11.2018 18:00:00 16,0 13,0 0 0 N - 10
10.11.2018 17:00:00 - - - - - - -
10.11.2018 16:00:00 - - - - - - -
10.11.2018 15:00:00 - - - - - - -
10.11.2018 14:00:00 - - - - - - -
10.11.2018 13:00:00 - - - - - - -
10.11.2018 12:00:00 17,0 13,0 0 0 N - 10
10.11.2018 11:00:00 17,0 13,0 9 5 NE - 10
10.11.2018 10:00:00 16,4 13,1 8 4 NE 1017,5 20
10.11.2018 09:00:00 15,0 12,0 8 4 ENE - 10
10.11.2018 08:00:00 15,0 12,0 5 3 ENE - 10
10.11.2018 07:00:00 14,2 11,5 5 3 ENE 1017,4 20
10.11.2018 06:00:00 14,0 12,0 5 3 ENE - 10
10.11.2018 05:00:00 14,0 12,0 8 4 ENE - 10

tt = temperature
td = dewpoint
ff = wind speed
dd = wind direction
ppp = reduced air pressure
vv = visibility

Next stations